| time (UTC) | temp F | wind direction | speed MPH | gust MPH | rain 1hr in | rain 24hr in | rain mn in | humidity % | barometer mb |
| 20260502214015 | 89 | 45 | 7.0 | 16.0 | 0.00 | 0.00 | 0.00 | 14 | 1012.0 |
| 20260502213015 | 89 | 68 | 6.0 | 12.0 | 0.00 | 0.00 | 0.00 | 15 | 1012.1 |
| 20260502212038 | 88 | 338 | 4.0 | 12.0 | 0.00 | 0.00 | 0.00 | 15 | 1012.1 |
| 20260502211015 | 89 | 45 | 10.0 | 17.0 | 0.00 | 0.00 | 0.00 | 15 | 1012.2 |
| 20260502210015 | 88 | 45 | 9.0 | 15.0 | 0.00 | 0.00 | 0.00 | 16 | 1012.5 |
| 20260502205016 | 90 | 45 | 9.0 | 16.0 | 0.00 | 0.00 | 0.00 | 16 | 1012.7 |
| 20260502204016 | 90 | 158 | 3.0 | 10.0 | 0.00 | 0.00 | 0.00 | 14 | 1012.9 |
| 20260502203036 | 89 | 248 | 1.0 | 5.0 | 0.00 | 0.00 | 0.00 | 15 | 1013.1 |
| 20260502202015 | 88 | 68 | 6.0 | 10.0 | 0.00 | 0.00 | 0.00 | 14 | 1013.2 |
| 20260502201015 | 87 | 338 | 5.0 | 10.0 | 0.00 | 0.00 | 0.00 | 16 | 1013.4 |
| 20260502200015 | 87 | 68 | 4.0 | 7.0 | 0.00 | 0.00 | 0.00 | 16 | 1013.5 |
| 20260502195015 | 87 | 45 | 6.0 | 14.0 | 0.00 | 0.00 | 0.00 | 16 | 1013.5 |
| 20260502194035 | 87 | 23 | 5.0 | 10.0 | 0.00 | 0.00 | 0.00 | 17 | 1013.8 |
| 20260502193015 | 87 | 0 | 1.0 | 7.0 | 0.00 | 0.00 | 0.00 | 16 | 1013.7 |
| 20260502192015 | 86 | 68 | 6.0 | 12.0 | 0.00 | 0.00 | 0.00 | 17 | 1013.9 |
| 20260502191015 | 86 | 68 | 7.0 | 11.0 | 0.00 | 0.00 | 0.00 | 18 | 1014.0 |
| 20260502190015 | 87 | 68 | 7.0 | 16.0 | 0.00 | 0.00 | 0.00 | 19 | 1014.3 |
| 20260502185036 | 86 | 45 | 7.0 | 13.0 | 0.00 | 0.00 | 0.00 | 19 | 1014.3 |
| 20260502184015 | 85 | 68 | 4.0 | 15.0 | 0.00 | 0.00 | 0.00 | 20 | 1014.5 |
| 20260502183015 | 85 | 113 | 7.0 | 11.0 | 0.00 | 0.00 | 0.00 | 19 | 1014.7 |
| 20260502182016 | 85 | 68 | 9.0 | 16.0 | 0.00 | 0.00 | 0.00 | 20 | 1014.8 |
| 20260502181016 | 84 | 68 | 10.0 | 17.0 | 0.00 | 0.00 | 0.00 | 22 | 1014.8 |
| 20260502164015 | 80 | 90 | 14.0 | 22.0 | 0.00 | 0.00 | 0.00 | 29 | 1014.9 |
| 20260502163015 | 79 | 68 | 13.0 | 22.0 | 0.00 | 0.00 | 0.00 | 30 | 1014.8 |
| 20260502162035 | 79 | 90 | 14.0 | 21.0 | 0.00 | 0.00 | 0.00 | 31 | 1014.7 |
| 20260502161015 | 78 | 90 | 14.0 | 22.0 | 0.00 | 0.00 | 0.00 | 31 | 1014.6 |
| 20260502152015 | 75 | 68 | 16.0 | 26.0 | 0.00 | 0.00 | 0.00 | 34 | 1014.2 |
| 20260502151017 | 75 | 90 | 14.0 | 22.0 | 0.00 | 0.00 | 0.00 | 35 | 1014.2 |
| 20260502130537 | 0 | 0.0 | 0.0 | 0.00 | 0.00 | 0.00 | |||
| 20260502123017 | 0 | 0.0 | 0.0 | 0.00 | 0.00 | 0.00 | |||
| 20260502122606 | 0 | 0.0 | 0.0 | 0.00 | 0.00 | 0.00 | |||
| 20260502121517 | 0 | 0.0 | 0.0 | 0.00 | 0.00 | 0.00 | |||
| 20260502120518 | 0 | 0.0 | 0.0 | 0.00 | 0.00 | 0.00 | |||
| 20260502120104 | 0 | 0.0 | 0.0 | 0.00 | 0.00 | 0.00 | |||
| 20260502115517 | 0 | 0.0 | 0.0 | 0.00 | 0.00 | 0.00 | |||
| 20260502115037 | 0 | 0.0 | 0.0 | 0.00 | 0.00 | 0.00 | |||
| 20260502114017 | 0 | 0.0 | 0.0 | 0.00 | 0.00 | 0.00 | |||
| 20260502113604 | 0 | 0.0 | 0.0 | 0.00 | 0.00 | 0.00 | |||
| 20260502112517 | 0 | 0.0 | 0.0 | 0.00 | 0.00 | 0.00 | |||
| 20260502111517 | 0 | 0.0 | 0.0 | 0.00 | 0.00 | 0.00 | |||
| 20260502111120 | 0 | 0.0 | 0.0 | 0.00 | 0.00 | 0.00 | |||
| 20260502110017 | 0 | 0.0 | 0.0 | 0.00 | 0.00 | 0.00 | |||
| 20260502105019 | 0 | 0.0 | 0.0 | 0.00 | 0.00 | 0.00 | |||
| 20260502104606 | 0 | 0.0 | 0.0 | 0.00 | 0.00 | 0.00 | |||
| 20260502103517 | 0 | 0.0 | 0.0 | 0.00 | 0.00 | 0.00 | |||
| 20260502102537 | 0 | 0.0 | 0.0 | 0.00 | 0.00 | 0.00 | |||
| 20260502102048 | 70 | 0.0 | 0.0 | 0.00 | 0.00 | 0.00 | 24 | 1011.6 | |
| 20260502101540 | 70 | 90 | 5.0 | 7.0 | 0.00 | 0.00 | 0.00 | 24 | 1011.6 |
| 20260502100517 | 70 | 68 | 4.0 | 8.0 | 0.00 | 0.00 | 0.00 | 24 | 1011.6 |
| 20260502091518 | 68 | 113 | 2.0 | 4.0 | 0.00 | 0.00 | 0.00 | 28 | 1011.7 |
| 20260502090519 | 68 | 113 | 3.0 | 5.0 | 0.00 | 0.00 | 0.00 | 28 | 1011.7 |
| 20260502070516 | 66 | 90 | 2.0 | 3.0 | 0.00 | 0.00 | 0.00 | 27 | 1011.2 |
| 20260502065516 | 66 | 90 | 2.0 | 3.0 | 0.00 | 0.00 | 0.00 | 27 | 1011.2 |
| 20260502064517 | 66 | 90 | 2.0 | 3.0 | 0.00 | 0.00 | 0.00 | 27 | 1011.3 |
| 20260502063516 | 67 | 113 | 2.0 | 4.0 | 0.00 | 0.00 | 0.00 | 27 | 1011.3 |
| 20260502062536 | 67 | 113 | 2.0 | 4.0 | 0.00 | 0.00 | 0.00 | 27 | 1011.2 |
| 20260502060516 | 67 | 90 | 2.0 | 3.0 | 0.00 | 0.00 | 0.00 | 26 | 1011.1 |
| 20260502055516 | 67 | 90 | 2.0 | 3.0 | 0.00 | 0.00 | 0.00 | 26 | 1011.1 |
| 20260502054516 | 67 | 90 | 2.0 | 2.0 | 0.00 | 0.00 | 0.00 | 26 | 1011.0 |
| 20260502053536 | 68 | 113 | 1.0 | 2.0 | 0.00 | 0.00 | 0.00 | 25 | 1010.9 |
| 20260502052517 | 69 | 113 | 2.0 | 3.0 | 0.00 | 0.00 | 0.00 | 25 | 1011.0 |
| 20260502051516 | 69 | 0.0 | 2.0 | 0.00 | 0.00 | 0.00 | 25 | 1010.9 | |
| 20260502050516 | 69 | 0.0 | 0.0 | 0.00 | 0.00 | 0.00 | 25 | 1010.8 | |
| 20260502045516 | 70 | 0.0 | 0.0 | 0.00 | 0.00 | 0.00 | 25 | 1010.8 | |
| 20260502044537 | 71 | 0.0 | 1.0 | 0.00 | 0.00 | 0.00 | 25 | 1010.8 | |
| 20260502043518 | 71 | 0.0 | 0.0 | 0.00 | 0.00 | 0.00 | 25 | 1010.8 | |
| 20260502042517 | 72 | 0.0 | 0.0 | 0.00 | 0.00 | 0.00 | 24 | 1010.7 | |
| 20260502041517 | 73 | 0.0 | 0.0 | 0.00 | 0.00 | 0.00 | 24 | 1010.7 | |
| 20260502040516 | 74 | 0.0 | 0.0 | 0.00 | 0.00 | 0.00 | 23 | 1010.6 | |
| 20260502035536 | 74 | 0.0 | 0.0 | 0.00 | 0.00 | 0.00 | 23 | 1010.4 | |
| 20260502034518 | 76 | 0.0 | 0.0 | 0.00 | 0.00 | 0.00 | 22 | 1010.4 | |
| 20260502033516 | 76 | 0.0 | 1.0 | 0.00 | 0.00 | 0.00 | 22 | 1010.3 | |
| 20260502032516 | 76 | 0.0 | 1.0 | 0.00 | 0.00 | 0.00 | 22 | 1010.1 | |
| 20260502031517 | 76 | 0.0 | 0.0 | 0.00 | 0.00 | 0.00 | 22 | 1010.0 | |
| 20260502030536 | 76 | 0.0 | 1.0 | 0.00 | 0.00 | 0.00 | 22 | 1009.9 | |
| 20260502025516 | 76 | 0.0 | 0.0 | 0.00 | 0.00 | 0.00 | 21 | 1009.8 | |
| 20260502024516 | 78 | 0.0 | 0.0 | 0.00 | 0.00 | 0.00 | 20 | 1009.7 | |
| 20260502023516 | 79 | 270 | 1.0 | 2.0 | 0.00 | 0.00 | 0.00 | 19 | 1009.8 |
| 20260502022519 | 80 | 270 | 2.0 | 3.0 | 0.00 | 0.00 | 0.00 | 19 | 1009.6 |
| 20260502021536 | 81 | 270 | 2.0 | 3.0 | 0.00 | 0.00 | 0.00 | 19 | 1009.6 |
| 20260502020516 | 82 | 293 | 2.0 | 4.0 | 0.00 | 0.00 | 0.00 | 18 | 1009.6 |
| 20260502015516 | 83 | 293 | 3.0 | 8.0 | 0.00 | 0.00 | 0.00 | 17 | 1009.4 |
| 20260502014516 | 83 | 293 | 5.0 | 7.0 | 0.00 | 0.00 | 0.00 | 17 | 1009.5 |
| 20260502013516 | 84 | 293 | 5.0 | 9.0 | 0.00 | 0.00 | 0.00 | 17 | 1009.5 |
| 20260502012536 | 84 | 293 | 5.0 | 11.0 | 0.00 | 0.00 | 0.00 | 17 | 1009.5 |
| 20260502011516 | 84 | 293 | 5.0 | 10.0 | 0.00 | 0.00 | 0.00 | 17 | 1009.5 |
| 20260502010516 | 85 | 270 | 6.0 | 11.0 | 0.00 | 0.00 | 0.00 | 17 | 1009.5 |
| 20260502005516 | 85 | 293 | 6.0 | 12.0 | 0.00 | 0.00 | 0.00 | 17 | 1009.5 |
| 20260502004516 | 85 | 293 | 4.0 | 7.0 | 0.00 | 0.00 | 0.00 | 18 | 1009.4 |
| 20260502003537 | 85 | 293 | 6.0 | 13.0 | 0.00 | 0.00 | 0.00 | 18 | 1009.4 |
| 20260502002515 | 85 | 270 | 6.0 | 12.0 | 0.00 | 0.00 | 0.00 | 17 | 1009.4 |
| 20260502001515 | 85 | 270 | 7.0 | 10.0 | 0.00 | 0.00 | 0.00 | 17 | 1009.4 |
| 20260502000516 | 85 | 270 | 5.0 | 12.0 | 0.00 | 0.00 | 0.00 | 17 | 1009.4 |
| 20260501235515 | 85 | 293 | 7.0 | 12.0 | 0.00 | 0.00 | 0.00 | 17 | 1009.4 |
| 20260501234536 | 86 | 270 | 6.0 | 11.0 | 0.00 | 0.00 | 0.00 | 17 | 1009.4 |
| 20260501233515 | 85 | 248 | 8.0 | 14.0 | 0.00 | 0.00 | 0.00 | 16 | 1009.4 |
| 20260501232515 | 85 | 270 | 10.0 | 16.0 | 0.00 | 0.00 | 0.00 | 17 | 1009.4 |
| 20260501231517 | 85 | 270 | 10.0 | 16.0 | 0.00 | 0.00 | 0.00 | 17 | 1009.6 |
| 20260501230516 | 85 | 270 | 5.0 | 11.0 | 0.00 | 0.00 | 0.00 | 17 | 1009.6 |
| 20260501225538 | 84 | 270 | 5.0 | 13.0 | 0.00 | 0.00 | 0.00 | 17 | 1009.6 |
| 20260501224518 | 84 | 270 | 8.0 | 12.0 | 0.00 | 0.00 | 0.00 | 16 | 1009.7 |
| 20260501223515 | 84 | 270 | 6.0 | 10.0 | 0.00 | 0.00 | 0.00 | 18 | 1009.7 |
| 20260501222516 | 84 | 270 | 8.0 | 14.0 | 0.00 | 0.00 | 0.00 | 18 | 1009.9 |
| 20260501221515 | 84 | 270 | 5.0 | 10.0 | 0.00 | 0.00 | 0.00 | 17 | 1010.0 |
| 20260501220537 | 84 | 270 | 8.0 | 14.0 | 0.00 | 0.00 | 0.00 | 17 | 1010.1 |
| 20260501215515 | 84 | 248 | 4.0 | 10.0 | 0.00 | 0.00 | 0.00 | 18 | 1010.2 |